[ hide orbit diagram ]
For accurate long-term ephemerides, please instead use our Horizons system.This orbit viewer was implemented using two-body methods, and hence should not be used for determining accurate long-term trajectories (over several years or decades) or planetary encounter circumstances.
Orbital Elements at Epoch 2459000.5 (2020-May-31.0) TDB
Reference: JPL 15 (heliocentric ecliptic J2000)
Element | Value | Uncertainty (1-sigma) | Units |
e | .2027737803740985 | 3.5631e-08 | |
a | 2.303339656504154 | 9.0223e-09 | au |
q | 1.83628276686923 | 8.3042e-08 | au |
i | 4.633184974251173 | 4.4997e-06 | deg |
node | 94.22792471069587 | 5.919e-05 | deg |
peri | 203.222917851255 | 6.0778e-05 | deg |
M | 330.1858702953797 | 1.2788e-05 | deg |
tp | 2459106.243830879745 (2020-Sep-13.74383088) | 4.5445e-05 | TDB |
period | 1276.836838568155 3.50 | 7.5022e-06 2.054e-08 | d yr |
n | .2819467524164669 | 1.6566e-09 | deg/d |
Q | 2.77039654613908 | 1.0852e-08 | au |
|
| | Orbit Determination Parameters
Additional Information
|
[ show covariance matrix ]
Physical Parameter Table
Parameter |
Symbol |
Value |
Units |
Sigma |
Reference |
Notes |
absolute magnitude |
H |
17.0 |
|
n/a |
MPO427250 |
|
diameter |
diameter |
1.508 |
km |
0.390 |
urn:nasa:pds:neowise_diameters_albedos::2.0[mainbelt] (http://adsabs.harvard.edu/abs/2011ApJ...741...68M) |
|
geometric albedo |
albedo |
0.123 |
|
0.064 |
urn:nasa:pds:neowise_diameters_albedos::2.0[mainbelt] (http://adsabs.harvard.edu/abs/2011ApJ...741...68M) |
|
|
212410 (2006 KG39) Discovered 2006-May-18 by NEAT at Palomar |
Reference: 20090409/Numbers.arc | Last Updated: 2009-04-10 |
|
|